START_TIME,STEP,MOV.,M15,t_acc.,M20,t_acc.
1979-07-03 15:22:30.360 ,0,0,0.,24.0,0.,24.0
1979-07-03 15:22:44.760 ,2,1,0.,24.0,0.,24.0
1979-07-03 15:23:08.760 ,2,0,0.,24.0,0.,24.0
1979-07-03 15:23:32.760 ,0,0,,0,,0
1979-07-03 15:23:56.760 ,0,0,,0,,0
1979-07-03 15:24:26.760 ,0,0,0.,24.0,0.,24.0
1979-07-03 15:24:44.760 ,0,0,0.,24.0,0.,24.0
1979-07-03 15:25:08.760 ,0,1,0.,24.0,0.,24.0
1979-07-03 15:25:32.760 ,0,0,0.,24.0,0.,24.0
1979-07-03 15:25:56.760 ,1,1,0.,24.0,0.,24.0
1979-07-03 15:26:20.760 ,1,0,0.,24.0,0.,24.0
1979-07-03 15:26:44.760 ,2,1,0.,24.0,0.,24.0
1979-07-03 15:27:08.760 ,2,0,0.,24.0,0.,24.0
1979-07-03 15:27:32.760 ,3,1,0.,24.0,0.,24.0
1979-07-03 15:27:56.760 ,3,0,0.,24.0,0.,24.0
1979-07-03 15:28:20.760 ,4,1,0.,24.0,0.,24.0
1979-07-03 15:28:44.760 ,4,0,0.,24.0,0.,24.0
1979-07-03 15:29:08.760 ,5,1,0.,24.0,0.,24.0
1979-07-03 15:29:32.760 ,5,0,0.,24.0,0.,24.0
1979-07-03 15:29:56.760 ,6,1,0.,24.0,0.,24.0
1979-07-03 15:30:20.760 ,6,0,0.,24.0,0.,24.0
1979-07-03 15:30:44.760 ,7,0,0.,24.0,0.,24.0
1979-07-03 15:31:08.760 ,7,0,0.,24.0,0.,24.0
1979-07-03 15:31:32.760 ,3,1,0.,24.0,0.,24.0
1979-07-03 15:31:56.760 ,0,1,0.,24.0,0.,24.0
1979-07-03 15:32:20.760 ,4,1,0.,24.0,0.,24.0
1979-07-03 15:32:44.760 ,7,1,0.,24.0,0.,24.0
1979-07-03 15:33:08.760 ,3,1,0.,24.0,0.,24.0
1979-07-03 15:33:32.760 ,0,1,0.,24.0,0.,24.0
1979-07-03 15:33:56.760 ,4,1,0.,24.0,0.,24.0
1979-07-03 15:34:20.760 ,7,1,0.,24.0,0.,24.0
1979-07-03 15:34:44.760 ,3,1,0.,24.0,0.,24.0
1979-07-03 15:35:08.760 ,0,1,0.,24.0,0.,24.0
1979-07-03 15:35:32.760 ,4,1,0.,24.0,0.,24.0
1979-07-03 15:35:56.760 ,7,1,0.,24.0,0.,24.0
1979-07-03 15:36:20.760 ,3,1,0.,24.0,0.,24.0
1979-07-03 15:36:44.760 ,0,1,0.,24.0,0.,24.0
1979-07-03 15:37:08.760 ,4,1,0.,24.0,0.,24.0
1979-07-03 15:37:32.760 ,7,1,0.,24.0,0.,24.0
1979-07-03 15:37:56.760 ,3,1,0.,24.0,0.,24.0
1979-07-03 15:38:20.760 ,0,1,0.,24.0,0.,24.0
1979-07-03 15:38:44.750 ,4,1,0.,24.0,0.,24.0
1979-07-03 15:39:08.750 ,7,1,0.,24.0,0.,24.0
1979-07-03 15:39:32.750 ,3,1,0.,24.0,0.,24.0
1979-07-03 15:39:56.750 ,0,1,0.,24.0,0.,24.0
1979-07-03 15:40:20.750 ,4,1,0.,24.0,0.,24.0
1979-07-03 15:40:44.750 ,7,1,0.,24.0,0.,24.0
1979-07-03 15:41:08.750 ,3,1,0.,24.0,0.,24.0
1979-07-03 15:41:32.750 ,0,1,0.,24.0,0.,24.0
1979-07-03 15:41:56.750 ,0,0,0.,24.0,0.,24.0
1979-07-03 15:42:20.750 ,0,0,0.,24.0,0.,24.0
1979-07-03 15:42:44.750 ,5,1,0.,24.0,0.,24.0
1979-07-03 15:43:08.750 ,5,0,0.,24.0,0.,24.0
1979-07-03 15:43:32.750 ,4,1,0.,24.0,0.,24.0
1979-07-03 15:43:56.750 ,4,0,0.,24.0,0.,24.0
1979-07-03 15:44:20.750 ,3,1,0.,24.0,0.,24.0
1979-07-03 15:44:44.750 ,3,0,0.,24.0,0.,24.0
1979-07-03 15:45:08.750 ,2,1,0.,24.0,0.,24.0
1979-07-03 15:45:32.750 ,2,0,0.,24.0,0.,24.0
1979-07-03 15:45:56.750 ,1,1,0.,24.0,0.,24.0
1979-07-03 15:46:20.750 ,1,0,0.,24.0,0.,24.0
1979-07-03 15:46:44.750 ,0,1,0.,24.0,0.,24.0
1979-07-03 15:47:08.750 ,0,0,0.,24.0,0.,24.0
1979-07-03 15:47:32.750 ,0,1,0.,24.0,0.,24.0
1979-07-03 15:47:56.750 ,0,0,0.,24.0,0.,24.0
1979-07-03 15:48:20.750 ,1,1,0.,24.0,0.,24.0
1979-07-03 15:48:44.750 ,1,0,0.,24.0,0.,24.0
1979-07-03 15:49:08.750 ,2,1,0.,24.0,0.,24.0
1979-07-03 15:49:32.750 ,2,0,0.,24.0,0.,24.0
1979-07-03 15:49:56.750 ,3,1,0.,24.0,0.,24.0
1979-07-03 15:50:20.750 ,3,0,0.,24.0,0.,24.0
1979-07-03 15:50:44.750 ,4,1,0.,24.0,0.,24.0
1979-07-03 15:51:08.750 ,4,0,0.,24.0,0.,24.0
1979-07-03 15:51:32.750 ,5,1,0.,24.0,0.,24.0
1979-07-03 15:51:56.750 ,5,0,0.,24.0,0.,24.0
1979-07-03 15:52:20.750 ,6,1,0.,24.0,0.,24.0
1979-07-03 15:52:44.750 ,6,0,0.,24.0,0.,24.0
1979-07-03 15:53:08.750 ,7,1,0.,24.0,0.,24.0
1979-07-03 15:53:32.750 ,7,0,0.,24.0,0.,24.0
1979-07-03 15:53:56.750 ,7,1,0.,24.0,0.,24.0
1979-07-03 15:54:20.750 ,7,0,0.,24.0,0.,24.0
1979-07-03 15:54:44.750 ,6,1,0.,24.0,0.,24.0
1979-07-03 15:55:08.750 ,6,0,0.,24.0,0.,24.0
1979-07-03 15:55:32.750 ,5,1,0.,24.0,0.,24.0
1979-07-03 15:55:56.750 ,5,0,0.,24.0,0.,24.0
1979-07-03 15:56:20.750 ,4,1,0.,24.0,0.,24.0
1979-07-03 15:56:44.750 ,4,0,0.,24.0,0.,24.0
1979-07-03 15:57:08.750 ,3,1,0.,24.0,0.,24.0
1979-07-03 15:57:32.750 ,3,0,0.,24.0,0.,24.0
1979-07-03 15:57:56.750 ,2,1,0.,24.0,0.,24.0
1979-07-03 15:58:20.750 ,2,0,0.,24.0,0.,24.0
1979-07-03 15:58:44.750 ,1,1,0.,24.0,0.,24.0
1979-07-03 15:59:08.750 ,1,0,0.,24.0,0.,24.0
1979-07-03 15:59:32.750 ,0,1,0.,24.0,0.,24.0
1979-07-03 15:59:56.750 ,0,0,0.,24.0,0.,24.0
1979-07-03 16:00:20.750 ,0,1,0.,24.0,0.,24.0
1979-07-03 16:00:44.760 ,0,0,0.,24.0,0.,24.0
1979-07-03 16:01:08.750 ,1,1,0.,24.0,0.,24.0
1979-07-03 16:01:32.750 ,1,0,0.,24.0,0.,24.0
1979-07-03 16:01:56.750 ,2,1,0.,24.0,0.,24.0
1979-07-03 16:02:20.750 ,2,0,0.,24.0,0.,24.0
1979-07-03 16:02:44.750 ,3,1,0.,24.0,0.,24.0
1979-07-03 16:03:08.750 ,3,0,0.,24.0,0.,24.0
1979-07-03 16:03:32.750 ,4,1,0.,24.0,0.,24.0
1979-07-03 16:03:56.750 ,4,0,0.,24.0,0.,24.0
1979-07-03 16:04:20.750 ,5,1,0.,24.0,0.,24.0
1979-07-03 16:04:44.750 ,5,0,0.,24.0,0.,24.0
1979-07-03 16:05:08.750 ,6,1,0.,24.0,0.,24.0
1979-07-03 16:05:32.750 ,6,0,0.,24.0,0.,24.0
1979-07-03 16:05:56.750 ,7,1,0.,24.0,0.,24.0
1979-07-03 16:06:20.750 ,7,0,0.,24.0,0.,24.0
1979-07-03 16:06:44.750 ,7,1,0.,24.0,0.,24.0
1979-07-03 16:07:08.750 ,7,0,0.,24.0,0.,24.0
1979-07-03 16:07:32.750 ,6,1,0.,24.0,0.,24.0
1979-07-03 16:07:56.750 ,6,0,0.,24.0,0.,24.0
1979-07-03 16:08:20.750 ,5,1,0.,24.0,0.,24.0
1979-07-03 16:08:44.750 ,5,0,0.,24.0,0.,24.0
1979-07-03 16:09:08.750 ,4,1,0.,24.0,0.,24.0
1979-07-03 16:09:32.750 ,4,0,0.,24.0,0.,24.0
1979-07-03 16:09:56.750 ,3,1,0.,24.0,0.,24.0
1979-07-03 16:10:20.750 ,3,0,0.,24.0,0.,24.0
1979-07-03 16:10:44.750 ,2,1,0.,24.0,0.,24.0
1979-07-03 16:11:08.750 ,2,0,0.,24.0,0.,24.0
1979-07-03 16:11:32.750 ,1,1,0.,24.0,0.,24.0
1979-07-03 16:11:56.750 ,1,0,0.,24.0,0.,24.0
1979-07-03 16:12:20.750 ,0,1,0.,24.0,0.,24.0
1979-07-03 16:12:44.750 ,0,0,0.,24.0,0.,24.0
1979-07-03 16:13:08.750 ,0,1,0.,24.0,0.,24.0
1979-07-03 16:13:32.750 ,0,0,0.,24.0,0.,24.0
1979-07-03 16:13:56.750 ,1,1,0.,24.0,0.,24.0
1979-07-03 16:14:20.750 ,1,0,0.,24.0,0.,24.0
1979-07-03 16:14:44.750 ,2,1,0.,24.0,0.,24.0
1979-07-03 16:15:08.750 ,2,0,0.,24.0,0.,24.0
1979-07-03 16:15:32.750 ,3,1,0.,24.0,0.,24.0
1979-07-03 16:15:56.750 ,3,0,0.,24.0,0.,24.0
1979-07-03 16:16:20.750 ,4,1,0.,24.0,0.,24.0
1979-07-03 16:16:44.750 ,4,0,0.,24.0,0.,24.0
1979-07-03 16:17:08.750 ,5,1,0.,24.0,0.,24.0
1979-07-03 16:17:32.750 ,5,0,0.,24.0,0.,24.0
1979-07-03 16:17:56.750 ,6,1,0.,24.0,0.,24.0
1979-07-03 16:18:20.750 ,6,0,0.,24.0,0.,24.0
1979-07-03 16:18:44.750 ,7,0,0.,24.0,0.,24.0
1979-07-03 16:19:08.750 ,7,0,0.,24.0,0.,24.0
1979-07-03 16:19:32.750 ,3,1,0.,24.0,0.,24.0
1979-07-03 16:19:56.750 ,0,1,0.,24.0,0.,24.0
1979-07-03 16:20:20.750 ,4,1,0.,24.0,0.,24.0
1979-07-03 16:20:44.750 ,7,1,0.,24.0,0.,24.0
1979-07-03 16:21:08.750 ,3,1,0.,24.0,0.,24.0
1979-07-03 16:21:32.750 ,0,1,0.,24.0,0.,24.0
1979-07-03 16:21:56.750 ,4,1,0.,24.0,0.,24.0
1979-07-03 16:22:20.750 ,7,1,0.,24.0,0.,24.0
1979-07-03 16:22:44.750 ,3,1,0.,24.0,0.,24.0
1979-07-03 16:23:08.750 ,0,1,0.,24.0,0.,24.0
1979-07-03 16:23:32.750 ,4,1,0.,24.0,0.,24.0
1979-07-03 16:23:56.750 ,7,1,0.,24.0,0.,24.0
1979-07-03 16:24:20.750 ,3,1,0.,24.0,0.,24.0
1979-07-03 16:24:44.750 ,0,1,0.,24.0,0.,24.0
1979-07-03 16:25:08.750 ,4,1,0.,24.0,0.,24.0
1979-07-03 16:25:32.750 ,7,1,0.,24.0,0.,24.0
1979-07-03 16:25:56.750 ,3,1,0.,24.0,0.,24.0
1979-07-03 16:26:20.750 ,0,1,0.,24.0,0.,24.0
1979-07-03 16:26:44.750 ,4,1,0.,24.0,0.,24.0
1979-07-03 16:27:08.750 ,7,1,0.,24.0,0.,24.0
1979-07-03 16:27:32.750 ,3,1,0.,24.0,0.,24.0
1979-07-03 16:27:56.750 ,0,1,0.,24.0,0.,24.0
1979-07-03 16:28:20.750 ,4,1,0.,24.0,0.,24.0
1979-07-03 16:28:44.750 ,7,1,0.,24.0,0.,24.0
1979-07-03 16:29:08.750 ,3,1,0.,24.0,0.,24.0
1979-07-03 16:29:32.750 ,0,1,0.,24.0,0.,24.0
1979-07-03 16:29:56.750 ,0,0,0.,24.0,0.,24.0
1979-07-03 16:30:20.750 ,0,0,0.,24.0,0.,24.0
1979-07-03 16:30:44.750 ,5,1,0.,24.0,0.,24.0
1979-07-03 16:31:08.750 ,5,0,0.,24.0,0.,24.0
1979-07-03 16:31:32.750 ,4,1,0.,24.0,0.,24.0
1979-07-03 16:31:56.750 ,4,0,1.,24.0,0.,24.0
1979-07-03 16:32:20.750 ,3,1,0.,24.0,0.,24.0
1979-07-03 16:32:44.750 ,3,0,0.,24.0,0.,24.0
1979-07-03 16:33:08.750 ,2,1,0.,24.0,0.,24.0
1979-07-03 16:33:32.750 ,2,0,0.,24.0,0.,24.0
1979-07-03 16:33:56.750 ,1,1,0.,24.0,0.,24.0
1979-07-03 16:34:20.750 ,1,0,0.,24.0,0.,24.0
1979-07-03 16:34:44.750 ,0,1,0.,24.0,0.,24.0
1979-07-03 16:35:08.750 ,0,0,0.,24.0,0.,24.0
1979-07-03 16:35:32.750 ,0,1,0.,24.0,0.,24.0
1979-07-03 16:35:56.750 ,0,0,0.,24.0,0.,24.0
1979-07-03 16:36:20.750 ,1,1,0.,24.0,0.,24.0
1979-07-03 16:36:44.750 ,1,0,0.,24.0,0.,24.0
1979-07-03 16:37:08.750 ,2,1,0.,24.0,0.,24.0
1979-07-03 16:37:32.750 ,2,0,0.,24.0,0.,24.0
1979-07-03 16:37:56.750 ,3,1,0.,24.0,0.,24.0
1979-07-03 16:38:20.750 ,3,0,0.,24.0,0.,24.0
1979-07-03 16:38:44.750 ,4,1,0.,24.0,0.,24.0
1979-07-03 16:39:08.750 ,4,0,0.,24.0,0.,24.0
1979-07-03 16:39:32.750 ,5,1,0.,24.0,0.,24.0
1979-07-03 16:39:56.750 ,5,0,0.,24.0,0.,24.0
1979-07-03 16:40:20.750 ,6,1,0.,24.0,0.,24.0
1979-07-03 16:40:44.750 ,6,0,0.,24.0,0.,24.0
1979-07-03 16:41:08.750 ,7,1,0.,24.0,0.,24.0
1979-07-03 16:41:32.750 ,7,0,0.,24.0,0.,24.0
1979-07-03 16:41:56.750 ,7,1,0.,24.0,0.,24.0
1979-07-03 16:42:20.750 ,7,0,0.,24.0,0.,24.0
1979-07-03 16:42:44.750 ,6,1,0.,24.0,0.,24.0
1979-07-03 16:43:08.750 ,6,0,0.,24.0,0.,24.0
1979-07-03 16:43:32.750 ,5,1,0.,24.0,0.,24.0
1979-07-03 16:43:56.750 ,5,0,0.,24.0,0.,24.0
1979-07-03 16:44:20.750 ,4,1,0.,24.0,0.,24.0
1979-07-03 16:44:44.750 ,4,0,0.,24.0,0.,24.0
1979-07-03 16:45:08.750 ,3,1,0.,24.0,0.,24.0
1979-07-03 16:45:32.750 ,3,0,0.,24.0,0.,24.0
1979-07-03 16:45:56.750 ,2,1,0.,24.0,0.,24.0
1979-07-03 16:46:20.750 ,2,0,0.,24.0,0.,24.0
1979-07-03 16:46:44.750 ,1,1,0.,24.0,0.,24.0
1979-07-03 16:47:08.750 ,1,0,0.,24.0,0.,24.0
1979-07-03 16:47:32.750 ,0,1,0.,24.0,0.,24.0
1979-07-03 16:47:56.750 ,0,0,0.,24.0,0.,24.0
1979-07-03 16:48:20.750 ,0,1,0.,24.0,0.,24.0
1979-07-03 16:48:44.750 ,0,0,0.,24.0,0.,24.0
1979-07-03 16:49:08.750 ,0,0,,0,,0
1979-07-03 16:49:32.750 ,0,0,,0,,0
1979-07-03 16:50:59.750 ,0,0,0.,24.0,0.,24.0
1979-07-03 16:51:08.750 ,0,0,0.,24.0,0.,24.0
1979-07-03 16:51:32.750 ,4,1,0.,24.0,0.,24.0
1979-07-03 16:51:56.750 ,4,0,0.,24.0,0.,24.0
1979-07-03 16:52:20.750 ,5,1,0.,24.0,0.,24.0
1979-07-03 16:52:44.750 ,5,0,0.,24.0,0.,24.0
1979-07-03 16:53:08.750 ,6,1,0.,24.0,0.,24.0
1979-07-03 16:53:32.750 ,6,0,0.,24.0,0.,24.0
1979-07-03 16:53:56.750 ,7,1,0.,24.0,0.,24.0
1979-07-03 16:54:20.750 ,7,0,0.,24.0,0.,24.0
1979-07-03 16:54:44.750 ,7,1,0.,24.0,0.,24.0
1979-07-03 16:55:08.750 ,7,0,0.,24.0,0.,24.0
1979-07-03 16:55:32.750 ,6,1,0.,24.0,0.,24.0
1979-07-03 16:55:56.750 ,6,0,0.,24.0,0.,24.0
1979-07-03 16:56:20.750 ,5,1,0.,24.0,0.,24.0
1979-07-03 16:56:44.750 ,5,0,0.,24.0,0.,24.0
1979-07-03 16:57:08.750 ,4,1,0.,24.0,0.,24.0
1979-07-03 16:57:32.750 ,4,0,0.,24.0,0.,24.0
1979-07-03 16:57:56.750 ,3,1,0.,24.0,0.,24.0
1979-07-03 16:58:20.750 ,3,0,0.,24.0,0.,24.0
1979-07-03 16:58:44.750 ,2,1,0.,24.0,0.,24.0
1979-07-03 16:59:08.750 ,2,0,0.,24.0,0.,24.0
1979-07-03 16:59:32.750 ,1,1,0.,24.0,0.,24.0
1979-07-03 16:59:56.750 ,1,0,0.,24.0,0.,24.0
1979-07-03 17:00:20.750 ,0,1,0.,24.0,0.,24.0
1979-07-03 17:00:44.750 ,0,0,0.,24.0,0.,24.0
1979-07-03 17:01:08.750 ,0,0,,0,,0
1979-07-03 17:01:32.750 ,0,0,0.,24.0,0.,24.0
1979-07-03 17:01:56.750 ,1,1,0.,24.0,0.,24.0
1979-07-03 17:02:20.750 ,1,0,0.,24.0,0.,24.0
1979-07-03 17:02:44.750 ,2,1,0.,24.0,0.,24.0
1979-07-03 17:03:08.750 ,2,0,0.,24.0,0.,24.0
1979-07-03 17:03:32.750 ,3,1,0.,24.0,0.,24.0
1979-07-03 17:03:56.750 ,3,0,0.,24.0,0.,24.0
1979-07-03 17:04:20.750 ,4,1,0.,24.0,0.,24.0
1979-07-03 17:04:44.750 ,4,0,0.,24.0,0.,24.0
1979-07-03 17:05:08.750 ,5,1,0.,24.0,0.,24.0
1979-07-03 17:05:32.750 ,5,0,0.,24.0,0.,24.0
1979-07-03 17:05:56.750 ,6,1,0.,24.0,0.,24.0
1979-07-03 17:06:20.750 ,6,0,0.,24.0,0.,24.0
1979-07-03 17:06:44.750 ,7,0,0.,24.0,0.,24.0
1979-07-03 17:07:08.750 ,7,0,0.,24.0,0.,24.0
1979-07-03 17:07:32.750 ,3,1,0.,24.0,0.,24.0
1979-07-03 17:07:56.750 ,0,1,0.,24.0,0.,24.0
1979-07-03 17:08:20.750 ,4,1,0.,24.0,0.,24.0
1979-07-03 17:08:44.750 ,7,1,0.,24.0,0.,24.0
1979-07-03 17:09:08.750 ,3,1,0.,24.0,0.,24.0
1979-07-03 17:09:32.750 ,0,1,0.,24.0,0.,24.0
1979-07-03 17:09:56.750 ,4,1,0.,24.0,0.,24.0
1979-07-03 17:10:20.750 ,7,1,0.,24.0,0.,24.0
1979-07-03 17:10:44.750 ,3,1,0.,24.0,0.,24.0
1979-07-03 17:11:08.750 ,0,1,0.,24.0,0.,24.0
1979-07-03 17:11:32.750 ,4,1,0.,24.0,0.,24.0
1979-07-03 17:11:56.750 ,7,1,0.,24.0,0.,24.0
1979-07-03 17:12:20.750 ,3,1,0.,24.0,0.,24.0
1979-07-03 17:12:44.750 ,0,1,0.,24.0,0.,24.0
1979-07-03 17:13:08.750 ,4,1,0.,24.0,0.,24.0
1979-07-03 17:13:32.750 ,7,1,0.,24.0,0.,24.0
1979-07-03 17:13:56.750 ,3,1,0.,24.0,0.,24.0
1979-07-03 17:14:20.750 ,0,1,0.,24.0,0.,24.0
1979-07-03 17:14:44.750 ,4,1,0.,24.0,0.,24.0
1979-07-03 17:15:08.750 ,7,1,0.,24.0,0.,24.0
1979-07-03 17:15:32.750 ,3,1,0.,24.0,0.,24.0
1979-07-03 17:15:56.750 ,0,1,0.,24.0,0.,24.0
1979-07-03 17:16:20.750 ,4,1,0.,24.0,0.,24.0
1979-07-03 17:16:44.750 ,7,1,0.,24.0,0.,24.0
1979-07-03 17:17:08.750 ,3,1,0.,24.0,0.,24.0
1979-07-03 17:17:32.750 ,0,1,0.,24.0,0.,24.0
1979-07-03 17:17:56.750 ,0,0,0.,24.0,0.,24.0
1979-07-03 17:18:20.750 ,0,0,0.,24.0,0.,24.0
1979-07-03 17:18:44.750 ,5,1,0.,24.0,0.,24.0
1979-07-03 17:19:08.750 ,5,0,0.,24.0,0.,24.0
1979-07-03 17:19:32.750 ,4,1,0.,24.0,0.,24.0
1979-07-03 17:19:56.750 ,4,0,0.,24.0,0.,24.0
1979-07-03 17:20:20.750 ,3,1,0.,24.0,0.,24.0
1979-07-03 17:20:44.750 ,3,0,0.,24.0,0.,24.0
1979-07-03 17:21:08.750 ,2,1,0.,24.0,0.,24.0
1979-07-03 17:21:32.750 ,2,0,0.,24.0,0.,24.0
1979-07-03 17:21:56.750 ,1,1,0.,24.0,0.,24.0
1979-07-03 17:22:20.750 ,1,0,0.,24.0,0.,24.0
1979-07-03 17:22:44.750 ,0,1,0.,24.0,0.,24.0
1979-07-03 17:23:08.750 ,0,0,0.,24.0,0.,24.0
1979-07-03 17:23:32.750 ,0,1,0.,24.0,0.,24.0
1979-07-03 17:23:56.750 ,0,0,0.,24.0,0.,24.0
1979-07-03 17:24:20.750 ,1,1,0.,24.0,0.,24.0
1979-07-03 17:24:44.750 ,1,0,0.,24.0,0.,24.0
1979-07-03 17:25:08.750 ,2,1,0.,24.0,0.,24.0
1979-07-03 17:25:32.750 ,2,0,0.,24.0,0.,24.0
1979-07-03 17:25:56.750 ,3,1,0.,24.0,0.,24.0
1979-07-03 17:26:20.750 ,3,0,0.,24.0,0.,24.0
1979-07-03 17:26:44.750 ,4,1,0.,24.0,0.,24.0
1979-07-03 17:27:08.750 ,4,0,0.,24.0,0.,24.0
1979-07-03 17:27:32.750 ,5,1,0.,24.0,0.,24.0
1979-07-03 17:27:56.750 ,5,0,0.,24.0,0.,24.0
1979-07-03 17:28:20.750 ,6,1,0.,24.0,0.,24.0
1979-07-03 17:28:44.750 ,6,0,0.,24.0,0.,24.0
1979-07-03 17:29:08.750 ,7,1,0.,24.0,0.,24.0
1979-07-03 17:29:32.750 ,7,0,0.,24.0,0.,24.0
1979-07-03 17:29:56.750 ,7,1,0.,24.0,0.,24.0
1979-07-03 17:30:20.750 ,7,0,0.,24.0,0.,24.0
1979-07-03 17:30:44.750 ,6,1,0.,24.0,0.,24.0
1979-07-03 17:31:08.750 ,6,0,0.,24.0,0.,24.0
1979-07-03 17:31:32.750 ,5,1,0.,24.0,0.,24.0
1979-07-03 17:31:56.750 ,5,0,0.,24.0,0.,24.0
1979-07-03 17:32:20.750 ,4,1,0.,24.0,0.,24.0
1979-07-03 17:32:44.750 ,4,0,0.,24.0,0.,24.0
1979-07-03 17:33:08.750 ,3,1,0.,24.0,0.,24.0
1979-07-03 17:33:32.750 ,3,0,0.,24.0,0.,24.0
1979-07-03 17:33:56.750 ,2,1,0.,24.0,0.,24.0
1979-07-03 17:34:20.750 ,2,0,0.,24.0,0.,24.0
1979-07-03 17:34:44.750 ,1,1,0.,24.0,0.,24.0
1979-07-03 17:35:08.750 ,1,0,0.,24.0,0.,24.0
1979-07-03 17:35:32.750 ,0,1,0.,24.0,0.,24.0
1979-07-03 17:35:56.750 ,0,0,0.,24.0,0.,24.0
1979-07-03 17:36:20.750 ,0,1,0.,24.0,0.,24.0
1979-07-03 17:36:44.750 ,0,0,0.,24.0,0.,24.0
1979-07-03 17:37:08.750 ,1,1,0.,24.0,0.,24.0
1979-07-03 17:37:32.750 ,1,0,0.,24.0,0.,24.0
1979-07-03 17:37:56.750 ,2,1,0.,24.0,0.,24.0
1979-07-03 17:38:20.750 ,2,0,0.,24.0,0.,24.0
1979-07-03 17:38:44.750 ,3,1,0.,24.0,0.,24.0
1979-07-03 17:39:08.750 ,3,0,0.,24.0,0.,24.0
1979-07-03 17:39:32.750 ,4,1,0.,24.0,0.,24.0
1979-07-03 17:39:56.750 ,4,0,0.,24.0,0.,24.0
1979-07-03 17:40:20.750 ,5,1,0.,24.0,0.,24.0
1979-07-03 17:40:44.750 ,5,0,0.,24.0,0.,24.0
1979-07-03 17:41:08.750 ,6,1,0.,24.0,0.,24.0
1979-07-03 17:41:32.750 ,6,0,0.,24.0,0.,24.0
1979-07-03 17:41:56.750 ,7,1,0.,24.0,0.,24.0
1979-07-03 17:42:20.750 ,7,0,0.,24.0,0.,24.0
1979-07-03 17:42:44.750 ,7,1,0.,24.0,0.,24.0
1979-07-03 17:43:08.750 ,7,0,0.,24.0,0.,24.0
1979-07-03 17:43:32.750 ,6,1,0.,24.0,0.,24.0
1979-07-03 17:43:56.750 ,6,0,0.,24.0,0.,24.0
1979-07-03 17:44:20.750 ,0,0,,0,,0
1979-07-03 17:44:44.750 ,0,0,,0,,0
1979-07-03 17:44:44.750 ,0,0,0.,24.0,0.,24.0
1979-07-03 17:45:08.750 ,4,1,0.,24.0,0.,24.0
1979-07-03 17:45:32.750 ,4,0,0.,24.0,0.,24.0
1979-07-03 17:45:56.750 ,3,1,0.,24.0,0.,24.0
1979-07-03 17:46:20.750 ,3,0,0.,24.0,0.,24.0
1979-07-03 17:46:44.750 ,2,1,0.,24.0,0.,24.0
1979-07-03 17:47:08.750 ,2,0,0.,24.0,0.,24.0
1979-07-03 17:47:32.750 ,1,1,0.,24.0,0.,24.0
1979-07-03 17:47:56.750 ,1,0,0.,24.0,0.,24.0
1979-07-03 17:48:20.750 ,0,1,0.,24.0,0.,24.0
1979-07-03 17:48:44.750 ,0,0,0.,24.0,0.,24.0
1979-07-03 17:49:08.750 ,0,1,0.,24.0,0.,24.0
1979-07-03 17:49:32.750 ,0,0,0.,24.0,0.,24.0
1979-07-03 17:49:56.750 ,1,1,0.,24.0,0.,24.0
1979-07-03 17:50:20.750 ,1,0,0.,24.0,0.,24.0
1979-07-03 17:50:44.750 ,2,1,0.,24.0,0.,24.0
1979-07-03 17:51:08.750 ,2,0,0.,24.0,0.,24.0
1979-07-03 17:51:32.750 ,3,1,0.,24.0,0.,24.0
1979-07-03 17:51:56.750 ,3,0,0.,24.0,0.,24.0
1979-07-03 17:52:20.750 ,4,1,0.,24.0,0.,24.0
1979-07-03 17:52:44.750 ,4,0,0.,24.0,0.,24.0
1979-07-03 17:53:08.750 ,5,1,0.,24.0,0.,24.0
1979-07-03 17:53:32.750 ,5,0,0.,24.0,0.,24.0
1979-07-03 17:53:56.750 ,6,1,0.,24.0,0.,24.0
1979-07-03 17:54:20.750 ,6,0,0.,24.0,0.,24.0
1979-07-03 17:54:44.750 ,7,0,0.,24.0,0.,24.0
1979-07-03 17:55:08.750 ,7,0,0.,24.0,0.,24.0
1979-07-03 17:55:32.750 ,3,1,0.,24.0,0.,24.0
1979-07-03 17:55:56.750 ,0,1,0.,24.0,0.,24.0
1979-07-03 17:56:20.750 ,4,1,0.,24.0,0.,24.0
1979-07-03 17:56:44.750 ,7,1,0.,24.0,0.,24.0
1979-07-03 17:57:08.750 ,3,1,0.,24.0,0.,24.0
1979-07-03 17:57:32.750 ,0,1,0.,24.0,0.,24.0
1979-07-03 17:57:56.750 ,4,1,0.,24.0,0.,24.0
1979-07-03 17:58:20.750 ,7,1,0.,24.0,0.,24.0
1979-07-03 17:59:32.750 ,0,0,0.,24.0,0.,24.0
1979-07-03 17:59:56.750 ,7,1,0.,24.0,0.,24.0
1979-07-03 18:00:20.750 ,3,1,0.,24.0,0.,24.0
